Regional Weather Roundup
Issued by NWS Charleston, SC

Current Version | Previous Version | Text Only | Print | Product List | Glossary Off
Versions: 1 2 3 4 5 6 7 8 9 10 11 12 13 14 15 16 17 18 19 20 21 22 23 24 25 26 27 28 29 30 31 32 33 34 35 36 37 38 39 40 41 42 43 44 45 46 47 48 49 50

000
ASUS42 KCHS 190025
RWRCHS

REGIONAL WEATHER ROUNDUP
NATIONAL WEATHER SERVICE CHARLESTON SC
800 PM EDT FRI APR 18 2014

NOTE: "FAIR" INDICATES FEW OR NO CLOUDS BELOW 12,000 FEET WITH NO
SIGNIFICANT WEATHER AND/OR OBSTRUCTIONS TO VISIBILITY.

NOT ALL STATIONS ARE QUALITY CONTROLLED BY THE NATIONAL
WEATHER SERVICE. USE DATA WITH CAUTION...ESPECIALLY
DEWPOINT OBSERVATIONS.

SCZ027-030-031-034>040-042>050-190100-
...SOUTH CAROLINA...

CITY           SKY/WX    TMP DP  RH WIND       PRES   REMARKS
N CHARLESTON   HVY RAIN  59  56  89 NE18G30   30.07F FOG
6HR MIN TEMP:  59; 6HR MAX TEMP:  70; 6HR PCP:  0.96;

WATERFRONT PRK   N/A     57 N/A N/A MISG        N/A
FORT JOHNSON     N/A     57  57 100 NE14G25   30.11F
MOUNT PLEASANT RAIN     N/A N/A N/A N7G21     30.08F
JOHNS ISLAND   HVY RAIN  57  57 100 NE23G30   30.03F
PINOPOLIS        N/A     57  55  94 NE22      30.01F
MONCKS CORNER  HVY RAIN  57  57 100 NE8       30.11F
SUMMERVILLE    HVY RAIN  55  55 100 NE7G20    30.09F
BEAUFORT MCAS  HVY RAIN  59  57  93 E12       30.01F FOG
6HR MIN TEMP:  58; 6HR MAX TEMP:  62; 6HR PCP:  2.45;

BEAUFORT ARPT  RAIN      59  59 100 NE17G25   30.02R
HILTON HEAD IS NOT AVBL
GEORGETOWN     NOT AVBL
WALTERBORO     HVY RAIN  55 N/A N/A NE14G22   30.05F
ORANGEBURG     RAIN      54  51  90 E10G31    30.12F FOG
6HR MIN TEMP:  53; 6HR MAX TEMP:  59; 6HR PCP:  0.71;

BARNWELL       HVY RAIN  54  52  94 N10G20    30.12F
AIKEN          HVY RAIN  52  52 100 NE12G17   30.19R
MANNING        CLOUDY    55 N/A N/A NE12G17   30.13F
KINGSTREE      NOT AVBL
COLUMBIA       RAIN      55  52  89 NE9       30.16F FOG
6HR MIN TEMP:  55; 6HR MAX TEMP:  61; 6HR PCP:  0.33;

SUMTER         HVY RAIN  54  52  94 NE14      30.15F FOG
6HR MIN TEMP:  53; 6HR MAX TEMP:  60; 6HR PCP:  0.32;

FLORENCE       RAIN      56  54  93 NE7       30.20S FOG
6HR MIN TEMP:  56; 6HR MAX TEMP:  64; 6HR PCP:  0.21;

MYRTLE BEACH   LGT RAIN  57  55  94 N12       30.18R FOG
N MYRTLE BEACH RAIN      57  55  93 N6        30.20R FOG
6HR MIN TEMP:  57; 6HR MAX TEMP:  68; 6HR PCP:  0.19;


$$

GAZ063-065-086>088-099>101-113>116-118-119-134-136>141-150-190100-
...GEORGIA...

CITY           SKY/WX    TMP DP  RH WIND       PRES   REMARKS
SAVANNAH ARPT  LGT RAIN  57  55  93 N12       30.03F
6HR MIN TEMP:  57; 6HR MAX TEMP:  60; 6HR PCP:  2.11;

HUNTER AAF     LGT RAIN  57  57 100 N8        29.98F
6HR MIN TEMP:  58; 6HR MAX TEMP:  60; 6HR PCP:  1.79;

FORT STEWART   LGT RAIN  55  55 100 NE15      29.96F
6HR MIN TEMP:  56; 6HR MAX TEMP:  58; 6HR PCP:  1.41;

STATESBORO     NOT AVBL
SYLVANIA       RAIN      55  53  91 NE9G18    30.06F
CLAXTON        RAIN      55  55 100 NE16G22   30.01F
THOMSON        CLOUDY    50  50 100 NE9G16    30.16F
AUGUSTA-BUSH   HVY RAIN  53  50  89 NE13      30.13S FOG
6HR MIN TEMP:  53; 6HR MAX TEMP:  55; 6HR PCP:  0.82;

AUGUSTA-DANIEL RAIN      53  50  89 NE16G23   30.13F FOG
SWAINSBORO     RAIN      52  52 100 NE13G23   30.03F
VIDALIA        LGT RAIN  54  54 100 NE15G23   30.03F
ALMA           RAIN      56  53  90 NE12G23   29.94F FOG
6HR MIN TEMP:  54; 6HR MAX TEMP:  57; 6HR PCP:  1.11;

WAYCROSS       NOT AVBL
JESUP          LGT RAIN  55  55 100 NE12G21   29.96R
BRUNSWICK      CLOUDY    61  59  94 NE10G18   29.96F
SAINT SIMONS   LGT RAIN  61  60  97 NE12      29.96S
6HR MIN TEMP:  60; 6HR MAX TEMP:  64; 6HR PCP:  2.74;


$$

SCZ027-028-034-036>038-045-046-048>050-GAZ119-141-190100-
...LAKE AND SUPPLEMENTAL COASTAL OBSERVATIONS...

STATION/POSITION TIME  TEMP    WIND        PRES    WAVE   SWELL
                       AIR SEA DIR/SP/G            HT/PER HT/PER/DIR
                 (UTC) (F)     (DEG/KT/KT) (MB)    (FT/S) (FT/S/D)
UPR LAKE MARION  NOT AVBL
WINYAH BAY       0000   59      60/ 17     1021.0S
LAKE MURRAY      2300   53      20/  4/  8 1021.3F
ACE BASIN NERRS  0000   58      50/  8     1017.0S
FORT PULASKI     0000   60 59   10/ 14/ 19 1016.4R
SAPELO ISLAND    0000   60      30/ 16     1014.0S

$$

ANZ835-935-AMZ111-154-330-350-352-354-374-450-454-472-190100-
...C-MAN AND BUOY OBSERVATIONS...

STATION/POSITION TIME  TEMP    WIND        PRES    WAVE   SWELL
                       AIR SEA DIR/SP/G            HT/PER HT/PER/DIR
                 (UTC) (F)     (DEG/KT/KT) (MB)    (FT/S) (FT/S/D)
FOLLY BEACH CMAN 0000   59      40/ 31/ 37 1017.5F
BUOY 41004       NOT AVBL
BUOY 41008       0000   66 65  250/  4/  8 1014.1R   7/ 7   7/100/ 7
5E ST. MARYS GA  0000      64                N/A     6/ 7   2/ 80/11
FRYING PAN BUOY  0000   60 64   60/ 23/ 29 1020.0R   9/ 7   3/ 90/10
BUOY 41025       NOT AVBL
CAPE LOOKOUT NC  0000   55      20/ 15/ 21 1023.3R
BUOY 41002       NOT AVBL
BUOY 41010       0000   76 76  140/ 17/ 21 1016.3F   8/10   5/ 50/10
BUOY 41012       NOT AVBL
ST AUGUSTINE FL  0000   66     200/  7/ 10 1014.6S
CAPERS NEARSHORE 2300           70/ 27/ 33   N/A
FRIPP NEARSHORE  2300   60      60/ 21/ 31   N/A


$$


USA.gov is the U.S. government's official web portal to all federal, state and local government web resources and services.